This demonstration page uses our WeatherBlox Daily Observations layout. Learn more.

Hourly Observations for March 3, 2016

Temp ( °F °C ) Dew Point ( °F °C ) Humidity (%) Winds ( mph kmh ) Pressure ( in mb ) Visibility ( mi km ) Precip ( " mm )
12:15 am 00:15 Clear 32 0 19 -7 60 60 N 3 6 30.24 1024 10 16.09344 0 0
12:35 am 00:35 Clear 32 0 19 -7 60 60 N 5 7 30.24 1024 10 16.09344 0 0
12:55 am 00:55 Clear 32 0 18 -8 55 55 N 7 11 30.24 1024 10 16.09344 0 0
1:15 am 01:15 Clear 32 0 19 -7 60 60 Calm 30.24 1024 10 16.09344 0 0
1:35 am 01:35 Clear 32 0 19 -7 60 60 NNE 3 6 30.24 1024 10 16.09344 0 0
1:55 am 01:55 Clear 30 -1 19 -7 64 64 N 5 7 30.24 1024 10 16.09344 0 0
2:15 am 02:15 Clear 30 -1 19 -7 64 64 NNW 9 15 30.24 1024 10 16.09344 0 0
2:35 am 02:35 Clear 30 -1 19 -7 64 64 NNW 5 7 30.24 1024 10 16.09344 0 0
2:55 am 02:55 Clear 30 -1 19 -7 64 64 NNW 9 15 30.24 1024 10 16.09344 0 0
3:15 am 03:15 Clear 30 -1 19 -7 64 64 NW 10 17 30.24 1024 10 16.09344 0 0
3:35 am 03:35 Clear 30 -1 19 -7 64 64 NW 8 13 30.24 1024 10 16.09344 0 0
3:55 am 03:55 Clear 28 -2 19 -7 69 69 Calm 30.24 1024 10 16.09344 0 0
4:15 am 04:15 Clear 28 -2 19 -7 69 69 Calm 30.24 1024 10 16.09344 0 0
4:35 am 04:35 Clear 30 -1 19 -7 64 64 Calm 30.27 1025 10 16.09344 0 0
4:55 am 04:55 Clear 28 -2 19 -7 69 69 Calm 30.27 1025 10 16.09344 0 0
5:15 am 05:15 Clear 28 -2 19 -7 69 69 Calm 30.27 1025 10 16.09344 0 0
5:35 am 05:35 Clear 28 -2 21 -6 74 74 Calm 30.3 1026 10 16.09344 0 0
5:55 am 05:55 Clear 28 -2 21 -6 74 74 NW 6 9 30.3 1026 10 16.09344 0 0
6:15 am 06:15 Clear 28 -2 19 -7 69 69 NW 3 6 30.3 1026 10 16.09344 0 0
6:35 am 06:35 Clear 28 -2 19 -7 69 69 ESE 3 6 30.3 1026 10 16.09344 0 0
6:55 am 06:55 Sunny 28 -2 19 -7 69 69 Calm 30.3 1026 10 16.09344 0 0
7:15 am 07:15 Sunny 28 -2 21 -6 74 74 Calm 30.3 1026 10 16.09344 0 0
7:35 am 07:35 Sunny 30 -1 19 -7 64 64 Calm 30.3 1026 10 16.09344 0 0
7:55 am 07:55 Partly Cloudy 32 0 19 -7 60 60 Calm 30.33 1027 10 16.09344 0 0
8:15 am 08:15 Partly Cloudy 32 0 21 -6 64 64 Calm 30.33 1027 10 16.09344 0 0
8:35 am 08:35 Mostly Cloudy 32 0 21 -6 64 64 Calm 30.36 1028 10 16.09344 0 0
8:55 am 08:55 Mostly Cloudy 32 0 21 -6 64 64 Calm 30.36 1028 10 16.09344 0 0
9:15 am 09:15 Partly Cloudy 32 0 21 -6 64 64 W 3 6 30.36 1028 10 16.09344 0 0
9:35 am 09:35 Mostly Cloudy 34 1 21 -6 60 60 Calm 30.36 1028 10 16.09344 0 0
9:55 am 09:55 Mostly Cloudy 32 0 21 -6 64 64 Calm 30.33 1027 10 16.09344 0 0
10:15 am 10:15 Partly Cloudy 34 1 19 -7 56 56 E 3 6 30.33 1027 10 16.09344 0 0
10:35 am 10:35 Partly Cloudy 36 2 21 -6 56 56 NNE 3 6 30.33 1027 10 16.09344 0 0
10:55 am 10:55 Partly Cloudy 36 2 21 -6 56 56 N 3 6 30.33 1027 10 16.09344 0 0
11:15 am 11:15 Partly Cloudy 36 2 19 -7 52 52 NNE 3 6 30.3 1026 10 16.09344 0 0
11:35 am 11:35 Mostly Cloudy 37 3 21 -6 52 52 SSW 7 11 30.3 1026 10 16.09344 0 0
11:55 am 11:55 Cloudy 37 3 19 -7 48 48 Calm 30.3 1026 10 16.09344 0 0
12:15 pm 12:15 Cloudy 37 3 19 -7 48 48 SSW 5 7 30.27 1025 10 16.09344 0 0
12:35 pm 12:35 Partly Cloudy 37 3 21 -6 52 52 S 6 9 30.27 1025 10 16.09344 0 0
12:55 pm 12:55 Partly Cloudy 39 4 21 -6 48 48 Calm 30.24 1024 10 16.09344 0 0
1:15 pm 13:15 Mostly Cloudy 39 4 19 -7 45 45 Calm 30.24 1024 10 16.09344 0 0
1:35 pm 13:35 Mostly Cloudy 39 4 19 -7 45 45 E 7 11 30.24 1024 10 16.09344 0 0
1:55 pm 13:55 Mostly Cloudy 41 5 19 -7 42 42 S 5 7 30.24 1024 10 16.09344 0 0
2:15 pm 14:15 Mostly Cloudy 43 6 21 -6 42 42 ESE 7 11 30.24 1024 10 16.09344 0 0
2:35 pm 14:35 Cloudy 41 5 21 -6 45 45 S 5 7 30.24 1024 10 16.09344 0 0
2:55 pm 14:55 Cloudy 41 5 19 -7 42 42 Calm 30.21 1023 10 16.09344 0 0
3:15 pm 15:15 Cloudy 41 5 19 -7 42 42 SSE 3 6 30.24 1024 10 16.09344 0 0
3:35 pm 15:35 Cloudy 41 5 21 -6 45 45 SSE 6 9 30.21 1023 10 16.09344 0 0
3:55 pm 15:55 Cloudy 41 5 21 -6 45 45 SE 7 11 30.21 1023 10 16.09344 0 0
4:15 pm 16:15 Cloudy 39 4 23 -5 52 52 SE 7 11 30.21 1023 10 16.09344 0 0
4:35 pm 16:35 Cloudy 39 4 27 -3 61 61 S 6 9 30.18 1022 10 16.09344 0 0
4:55 pm 16:55 Cloudy 39 4 27 -3 61 61 S 7 11 30.21 1023 10 16.09344 0 0
5:15 pm 17:15 Cloudy 41 5 27 -3 57 57 S 6 9 30.21 1023 10 16.09344 0 0
5:35 pm 17:35 Cloudy 41 5 27 -3 57 57 S 8 13 30.21 1023 10 16.09344 0 0
5:55 pm 17:55 Cloudy 41 5 25 -4 53 53 SSE 6 9 30.21 1023 10 16.09344 0 0
6:15 pm 18:15 Cloudy 39 4 27 -3 61 61 SSE 14 22 30.21 1023 10 16.09344 0 0
6:35 pm 18:35 Cloudy 39 4 27 -3 61 61 SSW 8 13 30.21 1023 10 16.09344 0 0
6:55 pm 18:55 Cloudy 37 3 30 -1 75 75 SSW 12 19 30.21 1023 10 16.09344 0 0
7:15 pm 19:15 Cloudy with Light Snow 36 2 32 0 87 87 S 8 13 30.21 1023 5 8.04672 0 0
7:35 pm 19:35 Cloudy with Light Snow 36 2 34 1 93 93 S 7 11 30.21 1023 3 4.828032 0 0
7:55 pm 19:55 Cloudy with Light Snow 34 1 34 1 100 100 SSE 3 6 30.21 1023 2.5 4.02336 0 0
8:15 pm 20:15 Cloudy with Light Snow 34 1 34 1 100 100 S 5 7 30.21 1023 3 4.828032 0 0
8:35 pm 20:35 Cloudy with Light Snow 34 1 34 1 100 100 S 3 6 30.21 1023 2.5 4.02336 0 0
8:55 pm 20:55 Cloudy with Light Snow 34 1 34 1 100 100 S 5 7 30.21 1023 2.5 4.02336 0 0
9:15 pm 21:15 Cloudy with Light Snow 34 1 34 1 100 100 S 5 7 30.18 1022 2 3.218688 0 0
9:35 pm 21:35 Cloudy with Light Snow 34 1 34 1 100 100 S 3 6 30.21 1023 1.75 2.816352 0 0
9:55 pm 21:55 Cloudy with Light Snow 34 1 34 1 100 100 SSE 5 7 30.18 1022 2.5 4.02336 0 0
10:15 pm 22:15 Cloudy with Light Snow 34 1 34 1 100 100 SE 3 6 30.18 1022 2.5 4.02336 0 0
10:35 pm 22:35 Cloudy with Light Snow 34 1 34 1 100 100 SSE 3 6 30.18 1022 3 4.828032 0 0
10:55 pm 22:55 Cloudy with Light Snow 34 1 34 1 100 100 SSE 5 7 30.18 1022 2 3.218688 0 0
11:15 pm 23:15 Cloudy with Light Snow 34 1 34 1 100 100 SE 3 6 30.18 1022 3 4.828032 0 0
11:35 pm 23:35 Cloudy with Light Snow 34 1 34 1 100 100 SSE 5 7 30.18 1022 4 6.437376 0 0
11:55 pm 23:55 Cloudy with Light Snow 34 1 34 1 100 100 SSE 8 13 30.15 1021 7 11.265408 0 0

Powered by AerisWeather